P/2011 A2 ( Scotti ) 2016

Japanese version
Home page
Updated on February 11, 2016

---------------------------------------------------------------------

* Profile

* Orbital Elements

Epoch 2016 June 21.0 TT = JDT 2457560.5
T 2016 June 14.02152 TT                                 MPC
q   1.5528850            (2000.0)            P               Q
n   0.18013209     Peri.   94.64810     -0.85758202     -0.51039207
a   3.1050981      Node    54.67538     +0.43554226     -0.78644466
e   0.4998918      Incl.    4.47530     +0.27359827     -0.34785736
P   5.47
From 221 observations 2011 Jan. 11-May 12, mean residual 0".6.

* Magnitudes Graph

        m1 = 15.5 + 5 log d + 10.0 log r

---------------------------------------------------------------------

The orbital elements are published on M.P.E.C. 2013-A29.
The magnitudes graphs are made with Comet for Windows.

---------------------------------------------------------------------

Copyright(C) Seiichi Yoshida (comet@aerith.net). All rights reserved.